Wind_Speed
25 27 28 25 24 22 19 12 20 15 19 27 36 34 37 33 41 44 44 40 38 40 41 40 41 40 40 39 36 39 47 45 47 49 48 50 49 50 51 50 49 52 50 47
28 26 25 26 26 26 28 29 29 28 25 32 32 38 34 33 37 42 42 39 37 38 40 42 41 41 42 42 42 42 43 45 45 46 47 48 50 50 51 51 51 51 53 50
22 13 20 26 23 26 34 38 34 35 32 33 36 38 34 31 35 39 41 40 41 38 40 42 43 44 45 45 45 46 47 48 49 49 50 51 52 53 54 55 55 54 54 53
21 20 17 27 31 30 28 25 26 30 28 28 28 32 29 28 35 38 39 39 40 39 40 41 46 46 48 48 47 51 52 51 50 52 53 54 55 54 54 55 56 56 56 56
20 20 28 27 24 28 27 23 20 23 34 36 34 33 30 27 24 27 33 34 38 37 39 43 48 51 54 53 50 48 52 53 53 54 55 56 57 58 58 58 59 61 62 60
25 24 28 25 27 26 26 26 28 29 31 34 30 31 31 26 20 23 26 28 37 32 36 41 48 49 47 45 44 44 43 48 49 49 51 52 53 55 57 58 60 60 61 57
24 27 27 25 25 25 27 29 27 29 30 32 21 24 23 18 20 23 28 33 43 40 43 47 49 48 46 49 52 53 53 51 49 52 55 56 56 56 57 58 59 60 60 57
26 30 23 27 29 26 27 27 26 24 21 21 20 26 21 27 28 32 39 47 46 46 47 48 48 48 52 57 58 58 58 59 58 57 59 61 61 62 62 62 62 63 64 62
21 22 25 29 27 28 31 43 38 37 37 41 36 32 26 20 24 31 34 40 48 54 56 52 49 53 56 56 58 61 61 60 64 66 64 63 64 66 66 66 67 67 67 66
29 36 31 29 31 32 34 27 29 36 44 46 45 39 38 35 39 36 36 41 53 56 53 48 46 46 49 54 59 61 62 63 64 65 64 66 67 67 68 69 69 70 70 69
35 41 40 37 37 36 34 35 36 37 40 39 38 34 37 37 48 47 46 46 52 56 59 58 51 48 48 54 60 64 62 60 61 64 64 65 66 64 67 69 70 71 72 71
41 42 44 40 40 43 41 41 41 42 41 42 41 44 46 43 40 43 49 48 50 56 61 60 61 59 54 54 54 57 59 57 58 62 62 64 65 64 66 69 72 73 74 74
40 41 37 36 35 36 41 40 40 43 47 49 49 46 45 46 48 50 50 47 48 54 63 68 66 60 52 54 55 55 57 59 60 60 60 61 63 64 60 63 68 69 72 75
37 38 40 37 32 30 31 36 38 42 45 50 46 43 40 47 44 48 49 48 52 57 61 63 61 58 58 55 54 53 52 51 51 51 50 50 48 50 52 46 47 53 56 59
35 38 37 38 37 35 36 41 37 41 50 43 40 40 40 41 44 45 51 51 55 60 60 61 60 60 57 54 50 51 48 45 44 42 44 45 45 43 42 44 46 49 55 58
32 32 34 34 35 35 36 37 39 45 44 48 48 46 47 47 50 52 54 56 58 58 55 56 55 54 50 53 45 43 43 45 45 46 46 47 48 49 49 46 43 47 43 47
29 29 29 29 27 27 30 25 30 33 36 38 41 41 40 43 44 44 46 48 46 48 51 49 46 47 45 46 48 47 48 50 53 52 52 53 53 53 52 49 45 39 40 41
24 25 26 21 19 23 23 24 25 28 29 29 31 30 39 37 37 38 43 35 43 49 45 42 43 43 46 49 52 55 56 57 59 60 58 59 58 58 59 56 52 44 38 37
22 23 23 21 19 20 20 22 22 18 19 26 27 21 27 37 38 36 38 44 44 38 39 41 42 46 51 55 60 64 64 65 64 68 67 65 62 61 59 58 53 50 42 39
14 13 18 18 16 14 14 18 16 17 26 19 20 27 32 34 33 35 35 37 37 37 38 41 45 49 55 59 65 69 66 61 60 61 57 59 55 55 57 57 53 50 48 45
14 15 16 16 18 18 16 20 20 25 27 27 29 32 34 35 36 34 33 33 35 37 41 46 50 53 55 56 58 61 61 60 55 51 51 48 48 45 47 47 45 48 51 49
17 20 14 13 16 19 20 23 24 26 30 33 34 34 35 33 33 34 31 32 36 40 44 47 49 49 47 47 52 52 48 45 41 38 39 36 42 42 42 41 37 41 46 50
16 15 18 18 22 21 22 25 28 29 33 35 35 36 34 31 29 30 33 36 39 43 45 46 44 39 41 43 47 41 37 32 31 29 28 34 38 39 40 41 41 42 44 45
20 19 22 26 23 25 26 34 37 38 38 41 37 32 28 28 30 32 35 39 41 42 40 37 32 35 38 36 32 30 26 25 24 22 22 27 32 36 39 43 44 47 43 44
23 23 25 32 35 35 35 38 48 42 35 31 26 25 28 31 32 35 36 36 32 32 30 26 29 32 31 29 28 27 25 24 23 24 24 27 30 33 37 39 41 44 42 43
16 15 14 16 17 23 30 35 35 28 23 21 22 27 30 33 33 32 27 25 24 21 22 25 28 31 32 30 30 28 29 27 27 28 31 28 27 29 29 30 33 37 41 47
Wind_Direction
210 217 219 221 226 225 199 226 237 262 238 255 262 250 252 246 256 257 260 259 257 259 259 259 261 260 260 262 256 248 255 255 252 258 259 262 264 263 264 264 264 261 264 267
208 212 217 219 225 226 216 210 224 214 204 225 243 258 252 250 251 260 267 266 259 258 261 261 262 261 261 260 260 258 255 258 258 256 258 259 259 260 260 261 261 261 261 262
212 199 237 230 229 228 227 224 231 230 226 237 248 253 258 255 255 257 262 266 268 265 262 264 263 261 263 261 262 261 259 260 261 260 259 257 258 258 258 258 259 258 259 259
212 190 212 229 227 228 238 236 237 236 235 242 250 257 258 264 251 254 257 259 262 264 263 263 263 264 263 261 259 260 261 261 262 262 263 265 264 263 265 266 266 264 263 263
216 230 227 234 231 234 239 234 238 251 246 246 245 253 252 230 244 262 268 260 258 258 259 261 262 260 258 261 263 266 265 263 262 262 262 263 264 265 264 264 264 266 266 265
219 207 222 232 236 241 236 234 230 239 249 250 252 257 260 259 258 279 281 266 259 254 254 253 256 261 266 269 268 264 259 264 266 263 262 261 260 260 262 263 263 263 264 265
238 239 247 250 247 246 245 243 245 252 255 263 278 282 290 288 275 244 245 244 258 258 257 261 265 268 273 271 269 268 268 265 263 266 267 266 265 264 263 263 263 263 263 263
248 242 241 258 256 247 248 251 251 253 254 265 254 263 270 238 231 233 231 253 276 273 268 266 266 269 267 266 268 269 270 269 267 264 263 264 266 267 266 264 263 263 263 265
256 253 239 222 232 251 252 249 254 249 245 239 229 223 247 258 267 260 256 257 259 269 272 272 274 269 269 272 272 272 272 270 269 269 267 265 264 264 265 265 264 263 264 264
267 268 260 260 249 243 246 249 250 248 252 253 252 244 243 246 252 236 246 252 262 264 267 269 266 268 273 275 272 270 270 271 271 270 270 271 267 267 267 267 265 264 263 262
263 264 260 258 261 258 254 255 254 260 252 255 257 250 239 240 241 247 250 258 265 270 275 276 274 276 274 274 274 274 274 275 276 275 273 271 270 270 268 266 265 265 263 263
264 266 268 266 262 263 258 259 253 254 260 257 259 256 247 247 258 249 253 254 264 267 269 272 274 278 282 278 275 276 276 274 271 271 273 271 273 268 265 264 264 262 262 262
277 276 272 268 263 262 261 258 257 252 254 257 259 259 260 259 259 256 256 257 259 258 262 267 273 279 281 277 275 276 278 277 276 275 272 271 269 268 266 265 263 265 262 259
275 271 270 265 261 257 241 248 251 253 257 261 265 265 256 261 260 255 258 257 257 261 264 270 278 281 281 282 282 281 279 278 277 277 276 273 268 266 268 274 275 271 268 266
275 272 270 269 266 257 254 246 247 241 241 258 262 259 262 258 257 250 253 253 256 264 271 277 279 281 283 285 285 286 288 286 283 277 274 273 268 269 274 277 285 279 265 258
275 272 270 266 268 263 258 254 253 253 252 263 264 265 265 266 260 260 265 266 267 272 273 275 278 280 284 284 285 285 284 283 279 276 271 271 268 271 278 277 284 283 270 254
270 274 270 270 263 256 253 258 258 259 259 261 261 266 266 264 264 263 265 265 271 275 274 274 281 281 283 284 288 287 283 280 280 278 274 271 268 269 271 274 279 273 272 262
262 267 263 258 248 261 266 270 268 267 269 264 262 257 264 262 270 269 269 277 269 269 282 283 283 286 288 289 288 287 283 283 280 277 274 269 266 266 268 267 271 274 263 271
264 251 249 254 263 266 272 271 274 277 262 269 262 257 250 265 267 274 273 270 276 283 277 280 284 287 288 289 290 288 286 284 281 278 276 270 268 265 264 266 267 266 262 262
260 246 246 250 255 261 271 271 262 261 258 269 258 256 261 264 269 272 272 277 275 276 279 282 286 291 293 293 291 291 292 291 285 279 276 270 264 268 265 263 263 261 261 257
277 276 276 262 262 251 255 265 265 261 270 270 268 264 264 262 270 275 270 270 273 278 283 287 290 293 296 297 297 296 295 293 289 276 277 269 260 266 267 266 264 258 255 255
263 255 257 257 254 256 261 267 270 269 269 268 268 272 272 273 273 274 275 275 277 282 285 288 293 295 298 305 308 304 301 297 291 278 271 272 262 265 266 261 259 257 253 254
262 262 238 255 254 260 267 268 265 270 274 275 282 284 282 277 273 272 275 280 285 288 290 291 291 296 307 307 309 312 305 295 299 295 278 264 262 263 263 262 262 264 263 258
253 244 241 241 240 248 262 268 270 266 279 288 281 278 274 271 274 281 285 287 290 290 287 287 293 302 303 301 305 310 317 308 304 296 282 267 265 265 264 263 263 268 266 261
263 262 256 250 251 252 258 267 272 281 284 275 275 272 271 276 284 287 291 293 286 282 284 293 299 298 299 303 306 309 311 308 305 301 295 286 281 274 273 272 270 268 265 258
270 265 261 250 254 250 252 257 267 280 275 269 270 270 279 286 292 294 292 281 280 288 296 299 295 296 298 301 303 311 312 314 312 309 310 305 305 292 283 277 275 274 271 267
Height
5733 5737 5740 5746 5749 5755 5758 5766 5767 5772 5773 5773 5769 5771 5773 5778 5776 5777 5780 5784 5787 5788 5790 5793 5793 5795 5797 5799 5803 5805 5802 5807 5808 5808 5810 5811 5813 5815 5815 5816 5818 5818 5821 5823
5729 5733 5738 5742 5744 5749 5752 5754 5758 5761 5764 5767 5765 5762 5767 5771 5772 5770 5771 5773 5777 5780 5781 5781 5784 5786 5787 5788 5791 5794 5796 5795 5797 5799 5800 5801 5802 5802 5804 5804 5805 5807 5808 5811
5726 5733 5735 5737 5740 5743 5744 5746 5749 5753 5756 5757 5756 5757 5760 5764 5765 5765 5765 5766 5766 5770 5771 5771 5773 5774 5777 5778 5779 5781 5782 5784 5784 5785 5787 5787 5789 5790 5791 5791 5794 5796 5797 5797
5723 5728 5730 5731 5733 5736 5738 5742 5744 5746 5748 5749 5751 5750 5752 5755 5756 5757 5758 5758 5759 5760 5762 5761 5760 5762 5762 5764 5765 5765 5766 5771 5773 5773 5775 5775 5776 5778 5780 5780 5781 5783 5785 5786
5721 5724 5725 5725 5729 5731 5733 5736 5739 5740 5738 5740 5743 5742 5747 5749 5750 5750 5749 5750 5751 5751 5751 5751 5749 5748 5747 5749 5754 5758 5755 5756 5760 5762 5763 5765 5765 5765 5767 5767 5767 5767 5768 5772
5713 5715 5717 5720 5721 5723 5727 5728 5729 5730 5732 5731 5736 5737 5739 5742 5745 5746 5745 5742 5741 5744 5744 5741 5737 5738 5739 5741 5743 5745 5748 5745 5746 5748 5749 5750 5750 5751 5751 5752 5753 5754 5754 5758
5710 5711 5713 5715 5717 5719 5721 5722 5723 5725 5725 5725 5733 5732 5734 5737 5738 5741 5738 5734 5732 5733 5732 5732 5732 5732 5734 5733 5731 5731 5732 5736 5738 5736 5735 5736 5736 5736 5738 5738 5738 5739 5741 5746
5702 5705 5710 5710 5710 5714 5714 5716 5718 5719 5722 5725 5730 5729 5730 5731 5731 5729 5728 5724 5723 5723 5722 5722 5722 5724 5723 5721 5721 5721 5721 5720 5722 5724 5722 5721 5721 5722 5722 5723 5723 5724 5725 5730
5695 5698 5701 5700 5702 5705 5708 5705 5711 5708 5708 5708 5715 5719 5721 5723 5720 5721 5720 5718 5714 5710 5711 5712 5714 5711 5708 5708 5707 5706 5706 5706 5703 5702 5705 5708 5708 5706 5707 5707 5708 5710 5711 5716
5693 5688 5693 5695 5696 5697 5698 5702 5700 5700 5699 5699 5705 5711 5714 5711 5707 5707 5708 5707 5699 5698 5701 5703 5702 5700 5698 5696 5693 5691 5691 5689 5688 5687 5690 5689 5690 5690 5691 5691 5692 5692 5694 5700
5684 5681 5684 5688 5688 5689 5692 5691 5692 5693 5692 5691 5694 5699 5695 5700 5697 5698 5699 5697 5692 5690 5687 5684 5686 5691 5688 5685 5679 5675 5676 5678 5676 5673 5672 5671 5670 5675 5671 5671 5671 5672 5674 5679
5671 5672 5672 5676 5678 5678 5681 5682 5684 5682 5684 5684 5684 5685 5686 5689 5687 5689 5686 5686 5683 5678 5675 5673 5674 5675 5676 5672 5670 5666 5661 5662 5660 5656 5655 5654 5652 5653 5652 5651 5651 5652 5653 5657
5660 5660 5660 5662 5668 5669 5667 5669 5671 5671 5672 5671 5673 5675 5675 5677 5675 5675 5677 5675 5671 5668 5664 5662 5663 5663 5666 5660 5656 5653 5650 5645 5642 5641 5639 5638 5634 5634 5632 5631 5631 5632 5633 5638
5651 5652 5650 5652 5657 5658 5658 5655 5657 5660 5658 5659 5662 5665 5665 5658 5662 5663 5661 5660 5658 5657 5652 5650 5653 5650 5646 5643 5641 5638 5635 5631 5627 5625 5622 5620 5618 5617 5616 5616 5616 5616 5616 5618
5640 5640 5640 5640 5642 5646 5648 5649 5648 5649 5650 5648 5654 5652 5652 5651 5648 5648 5648 5647 5646 5644 5644 5641 5638 5634 5630 5627 5625 5621 5618 5615 5613 5611 5609 5607 5605 5603 5605 5603 5599 5599 5598 5600
5630 5630 5629 5631 5631 5633 5634 5637 5638 5640 5641 5640 5639 5640 5641 5640 5638 5638 5637 5637 5634 5631 5632 5628 5625 5621 5618 5613 5613 5610 5606 5602 5599 5597 5595 5593 5591 5589 5589 5589 5586 5582 5582 5583
5621 5621 5621 5622 5622 5622 5625 5629 5628 5629 5629 5629 5628 5629 5626 5625 5626 5626 5625 5624 5622 5619 5616 5616 5614 5610 5606 5602 5597 5595 5592 5588 5583 5581 5579 5576 5575 5574 5573 5573 5573 5571 5569 5571
5613 5613 5613 5614 5615 5616 5618 5618 5618 5618 5618 5618 5617 5617 5615 5615 5615 5614 5612 5615 5610 5605 5606 5604 5601 5597 5592 5587 5583 5579 5575 5571 5567 5563 5560 5558 5556 5555 5555 5556 5557 5558 5559 5559
5606 5606 5607 5608 5609 5611 5611 5610 5611 5611 5611 5609 5607 5609 5609 5605 5605 5607 5603 5599 5598 5599 5597 5593 5590 5585 5581 5575 5568 5562 5557 5552 5546 5541 5538 5535 5535 5536 5538 5539 5541 5543 5545 5548
5601 5601 5603 5604 5604 5605 5606 5604 5605 5604 5604 5604 5602 5600 5598 5597 5597 5598 5596 5593 5590 5588 5585 5583 5579 5573 5567 5560 5550 5540 5534 5529 5523 5518 5515 5514 5517 5517 5519 5521 5523 5527 5530 5534
5598 5597 5598 5598 5598 5600 5600 5598 5598 5599 5600 5595 5593 5592 5591 5590 5588 5588 5587 5584 5581 5578 5575 5571 5566 5560 5552 5544 5535 5526 5516 5508 5503 5499 5499 5499 5502 5503 5503 5506 5508 5511 5514 5518
5594 5594 5594 5594 5594 5595 5594 5594 5594 5591 5588 5586 5585 5584 5582 5581 5580 5578 5576 5574 5572 5569 5565 5560 5553 5547 5541 5531 5520 5510 5503 5496 5489 5486 5487 5487 5490 5492 5491 5492 5495 5496 5499 5502
5590 5590 5590 5590 5590 5589 5588 5586 5584 5583 5580 5578 5579 5576 5573 5572 5570 5568 5567 5564 5561 5557 5552 5547 5542 5537 5531 5523 5514 5505 5496 5488 5484 5479 5478 5478 5479 5481 5481 5481 5484 5485 5486 5488
5583 5583 5583 5583 5584 5582 5581 5577 5576 5573 5575 5573 5568 5567 5565 5562 5562 5560 5558 5554 5549 5545 5540 5536 5533 5528 5523 5517 5510 5499 5491 5484 5480 5475 5472 5471 5471 5470 5470 5469 5469 5469 5470 5471
5577 5577 5577 5577 5577 5576 5575 5572 5565 5567 5564 5561 5561 5559 5558 5556 5554 5550 5547 5543 5538 5535 5532 5528 5524 5520 5516 5512 5503 5494 5487 5481 5477 5473 5470 5467 5464 5462 5459 5457 5457 5456 5456 5456
5571 5570 5570 5569 5568 5565 5563 5562 5561 5559 5557 5555 5555 5553 5550 5547 5544 5541 5538 5534 5530 5528 5525 5522 5517 5512 5509 5503 5495 5490 5483 5478 5473 5468 5461 5457 5453 5450 5446 5444 5443 5440 5440 5439